| time (UTC) | temp F | wind direction | speed knots | gust knots | rain 1hr in | rain 24hr in | rain mn in | humidity % | barometer mb |
| 20260904094751 | 82 | 294 | 3.5 | 8.7 | 0.00 | 0.00 | 0.00 | 45 | 1021.1 |
| 20260904093240 | 82 | 213 | 2.6 | 7.8 | 0.00 | 0.00 | 0.00 | 45 | 1021.2 |
| 20260904084741 | 79 | 221 | 2.6 | 7.8 | 0.00 | 0.00 | 0.00 | 49 | 1021.7 |
| 20260904083239 | 79 | 256 | 2.6 | 7.8 | 0.00 | 0.00 | 0.00 | 50 | 1021.8 |
| 20260904080239 | 78 | 244 | 0.9 | 5.2 | 0.00 | 0.00 | 0.00 | 53 | 1021.8 |
| 20260904073236 | 74 | 262 | 1.7 | 6.1 | 0.00 | 0.00 | 0.00 | 57 | 1022.3 |
| 20260904071736 | 73 | 265 | 1.7 | 5.2 | 0.00 | 0.00 | 0.00 | 60 | 1022.2 |
| 20260904070236 | 71 | 225 | 1.7 | 6.1 | 0.00 | 0.00 | 0.00 | 62 | 1022.2 |
| 20260904064733 | 68 | 262 | 0.9 | 3.5 | 0.00 | 0.00 | 0.00 | 67 | 1022.3 |
| 20260904063235 | 67 | 226 | 1.7 | 6.1 | 0.00 | 0.00 | 0.00 | 68 | 1022.3 |
| 20260904061733 | 67 | 265 | 1.7 | 4.3 | 0.00 | 0.00 | 0.00 | 69 | 1022.2 |
| 20260904060231 | 66 | 295 | 0.9 | 5.2 | 0.00 | 0.00 | 0.00 | 69 | 1022.4 |
| 20260904054731 | 65 | 281 | 0.9 | 1.7 | 0.00 | 0.00 | 0.00 | 72 | 1022.5 |
| 20260904053231 | 65 | 269 | 0.0 | 0.9 | 0.00 | 0.00 | 0.00 | 72 | 1022.4 |
| 20260904051733 | 64 | 269 | 0.0 | 0.9 | 0.00 | 0.00 | 0.00 | 73 | 1022.4 |
| 20260904050226 | 64 | 269 | 0.0 | 0.0 | 0.00 | 0.00 | 0.00 | 74 | 1022.4 |
| 20260904043226 | 64 | 269 | 0.0 | 0.9 | 0.00 | 0.00 | 0.00 | 72 | 1022.4 |
| 20260904041723 | 65 | 269 | 0.0 | 0.9 | 0.00 | 0.00 | 0.00 | 71 | 1022.5 |
| 20260904040222 | 65 | 269 | 0.0 | 0.9 | 0.00 | 0.00 | 0.00 | 71 | 1022.5 |
| 20260904034722 | 64 | 269 | 0.0 | 0.0 | 0.00 | 0.00 | 0.00 | 71 | 1022.7 |
| 20260904031728 | 66 | 269 | 0.0 | 0.9 | 0.00 | 0.00 | 0.00 | 67 | 1022.6 |
| 20260904030228 | 67 | 269 | 0.9 | 4.3 | 0.00 | 0.00 | 0.00 | 66 | 1022.7 |
| 20260904024724 | 67 | 218 | 0.9 | 3.5 | 0.00 | 0.00 | 0.00 | 65 | 1022.7 |
| 20260904023216 | 67 | 236 | 0.9 | 2.6 | 0.00 | 0.00 | 0.00 | 66 | 1022.8 |
| 20260904021721 | 67 | 185 | 0.9 | 3.5 | 0.00 | 0.00 | 0.00 | 66 | 1022.9 |
| 20260904020220 | 67 | 214 | 0.0 | 2.6 | 0.00 | 0.00 | 0.00 | 67 | 1022.8 |
| 20260904014717 | 67 | 248 | 0.9 | 2.6 | 0.00 | 0.00 | 0.00 | 66 | 1023.0 |
| 20260904013211 | 68 | 238 | 0.9 | 2.6 | 0.00 | 0.00 | 0.00 | 66 | 1023.1 |
| 20260904011720 | 68 | 219 | 0.9 | 3.5 | 0.00 | 0.00 | 0.00 | 67 | 1023.2 |
| 20260904010212 | 68 | 198 | 0.9 | 3.5 | 0.00 | 0.00 | 0.00 | 67 | 1023.1 |
| 20260904004708 | 68 | 246 | 0.9 | 3.5 | 0.00 | 0.00 | 0.00 | 67 | 1023.1 |
| 20260904003208 | 68 | 288 | 0.9 | 3.5 | 0.00 | 0.00 | 0.00 | 67 | 1023.2 |
| 20260903234710 | 67 | 237 | 0.9 | 3.5 | 0.00 | 0.00 | 0.00 | 67 | 1023.5 |
| 20260903233207 | 67 | 213 | 0.9 | 3.5 | 0.00 | 0.00 | 0.00 | 67 | 1023.6 |
| 20260903231709 | 67 | 211 | 0.9 | 2.6 | 0.00 | 0.00 | 0.00 | 67 | 1023.6 |
| 20260903230208 | 67 | 236 | 0.9 | 3.5 | 0.00 | 0.00 | 0.00 | 68 | 1023.7 |
| 20260903224708 | 67 | 243 | 0.9 | 2.6 | 0.00 | 0.00 | 0.00 | 66 | 1023.9 |
| 20260903223209 | 68 | 217 | 0.9 | 2.6 | 0.00 | 0.00 | 0.00 | 66 | 1023.9 |
| 20260903221706 | 67 | 232 | 0.9 | 3.5 | 0.00 | 0.00 | 0.00 | 67 | 1023.9 |
| 20260903220206 | 67 | 248 | 0.9 | 2.6 | 0.00 | 0.00 | 0.00 | 67 | 1024.0 |
| 20260903214706 | 66 | 230 | 0.0 | 1.7 | 0.00 | 0.00 | 0.00 | 68 | 1023.9 |
| 20260903213205 | 66 | 230 | 0.0 | 0.9 | 0.00 | 0.00 | 0.00 | 68 | 1023.6 |
| 20260903211706 | 67 | 230 | 0.0 | 2.6 | 0.00 | 0.00 | 0.00 | 67 | 1023.5 |
| 20260903210203 | 67 | 217 | 0.9 | 3.5 | 0.00 | 0.00 | 0.00 | 66 | 1023.4 |
| 20260903201704 | 67 | 264 | 0.0 | 0.9 | 0.00 | 0.00 | 0.00 | 66 | 1023.7 |
| 20260903200202 | 67 | 264 | 0.0 | 0.9 | 0.00 | 0.00 | 0.00 | 67 | 1023.7 |
| 20260903194703 | 68 | 264 | 0.0 | 1.7 | 0.00 | 0.00 | 0.00 | 64 | 1023.4 |
| 20260903191707 | 70 | 296 | 0.9 | 3.5 | 0.00 | 0.00 | 0.00 | 60 | 1023.0 |
| 20260903190204 | 70 | 257 | 0.9 | 3.5 | 0.00 | 0.00 | 0.00 | 60 | 1022.9 |
| 20260903184702 | 70 | 171 | 0.9 | 3.5 | 0.00 | 0.00 | 0.00 | 60 | 1022.8 |
| 20260903183204 | 71 | 235 | 0.9 | 3.5 | 0.00 | 0.00 | 0.00 | 59 | 1022.8 |
| 20260903181703 | 71 | 257 | 0.9 | 3.5 | 0.00 | 0.00 | 0.00 | 58 | 1022.6 |
| 20260903180203 | 72 | 269 | 0.9 | 5.2 | 0.00 | 0.00 | 0.00 | 57 | 1022.7 |
| 20260903173204 | 74 | 256 | 1.7 | 5.2 | 0.00 | 0.00 | 0.00 | 55 | 1022.5 |
| 20260903171704 | 74 | 194 | 1.7 | 6.1 | 0.00 | 0.00 | 0.00 | 54 | 1022.5 |
| 20260903170201 | 75 | 265 | 0.9 | 7.0 | 0.00 | 0.00 | 0.00 | 54 | 1022.6 |
| 20260903164704 | 75 | 285 | 1.7 | 7.0 | 0.00 | 0.00 | 0.00 | 53 | 1022.5 |
| 20260903163201 | 76 | 289 | 2.6 | 7.8 | 0.00 | 0.00 | 0.00 | 53 | 1022.3 |
| 20260903161703 | 76 | 246 | 1.7 | 6.1 | 0.00 | 0.00 | 0.00 | 53 | 1022.4 |
| 20260903160203 | 77 | 232 | 2.6 | 7.0 | 0.00 | 0.00 | 0.00 | 52 | 1022.5 |
| 20260903154701 | 77 | 277 | 2.6 | 7.0 | 0.00 | 0.00 | 0.00 | 51 | 1022.4 |
| 20260903153209 | 77 | 273 | 2.6 | 7.0 | 0.00 | 0.00 | 0.00 | 51 | 1022.6 |
| 20260903151705 | 78 | 246 | 2.6 | 9.6 | 0.00 | 0.00 | 0.00 | 50 | 1022.6 |
| 20260903150204 | 79 | 263 | 2.6 | 8.7 | 0.00 | 0.00 | 0.00 | 48 | 1022.5 |
| 20260903144705 | 79 | 167 | 3.5 | 10.4 | 0.00 | 0.00 | 0.00 | 49 | 1022.5 |
| 20260903143202 | 78 | 246 | 2.6 | 8.7 | 0.00 | 0.00 | 0.00 | 49 | 1022.7 |
| 20260903141704 | 79 | 248 | 3.5 | 12.2 | 0.00 | 0.00 | 0.00 | 48 | 1022.8 |
| 20260903140205 | 79 | 273 | 2.6 | 7.8 | 0.00 | 0.00 | 0.00 | 48 | 1022.8 |
| 20260903134702 | 78 | 243 | 3.5 | 9.6 | 0.00 | 0.00 | 0.00 | 48 | 1022.8 |
| 20260903133747 | 79 | 286 | 2.6 | 9.6 | 0.00 | 0.00 | 0.00 | 49 | 1022.8 |
| 20260903133050 | 77 | 217 | 2.6 | 7.8 | 0.00 | 0.00 | 0.00 | 51 | 1022.9 |
| 20260903124702 | 77 | 290 | 4.3 | 11.3 | 0.00 | 0.00 | 0.00 | 50 | 1023.0 |
| 20260903123202 | 78 | 261 | 3.5 | 9.6 | 0.00 | 0.00 | 0.00 | 49 | 1023.3 |
| 20260903121703 | 77 | 278 | 3.5 | 9.6 | 0.00 | 0.00 | 0.00 | 51 | 1023.5 |
| 20260903114703 | 77 | 232 | 4.3 | 9.6 | 0.00 | 0.00 | 0.00 | 50 | 1023.5 |
| 20260903113207 | 78 | 217 | 3.5 | 9.6 | 0.00 | 0.00 | 0.00 | 48 | 1023.4 |
| 20260903111702 | 79 | 221 | 3.5 | 12.2 | 0.00 | 0.00 | 0.00 | 49 | 1023.5 |
| 20260903110202 | 80 | 287 | 3.5 | 11.3 | 0.00 | 0.00 | 0.00 | 49 | 1023.5 |
| 20260903104706 | 79 | 254 | 3.5 | 12.2 | 0.00 | 0.00 | 0.00 | 49 | 1023.6 |
| 20260903103205 | 77 | 194 | 4.3 | 13.0 | 0.00 | 0.00 | 0.00 | 52 | 1023.6 |
| 20260903101703 | 78 | 281 | 2.6 | 8.7 | 0.00 | 0.00 | 0.00 | 52 | 1023.6 |